Weather History for KVWU - December, 2012

Change the Weather History Date:

Monday, December 3, 2012

  Actual Average (KBDE) Record (KBDE)
Temperature  
Mean Temperature 32 °F -  
Max Temperature 46 °F 24 °F 53 °F (1962)
Min Temperature 17 °F 5 °F -29 °F (1964)
Degree Days  
Heating Degree Days 34    
Moisture  
Dew Point 32 °F    
Average Humidity 83    
Maximum Humidity 100    
Minimum Humidity 73    
Precipitation  
Precipitation 0.02 in - - ()
Sea Level Pressure  
Sea Level Pressure 29.52 in    
Wind  
Wind Speed 15 mph (SSW)    
Max Wind Speed 30 mph    
Max Gust Speed 39 mph    
Visibility 9 miles    
Events Rain , Snow    
Averages and records for this station are not official NWS values.
T = Trace of Precipitation, MM = Missing Value Source: NWS Daily Summary

Daily Weather History Graph

Daily Weather History Graph

Search for Another Location

Airport or City:

Trip Planner

Search our weather history database for the weather conditions in past years. The results will help you decide how hot, cold, wet, or windy it might be!

Date:

Astronomy

Dec. 03, 2012 Rise Set
Actual Time 7:50 AM CST 4:25 PM CST
Civil Twilight 7:14 AM CST 5:01 PM CST
Nautical Twilight 6:35 AM CST 5:40 PM CST
Astronomical Twilight 5:57 AM CST 6:18 PM CST
Moon 9:26 PM CST (12/3) 11:02 AM CST (12/3)
Length of Visible Light 9h 46m
Length of Day
8h 35m
Waning Gibbous, 78% of the Moon is Illuminated
Dec 3
Waning Gibbous
Dec 6
Last Quarter
Dec 13
New
Dec 19
First Quarter
Dec 28
Full

Hourly Weather History & Observations

Time (CST) Temp. Windchill Dew Point Humidity Pressure Visibility Wind Dir Wind Speed Gust Speed Precip Events Conditions
12:08 AM 42.8 °F 35.1 °F 37.4 °F 81% 29.50 in 10.0 mi SSE 16.1 mph 25.3 mph N/A   Clear
12:29 AM 42.8 °F 35.4 °F 37.4 °F 81% 29.49 in 10.0 mi SSE 15.0 mph 25.3 mph N/A   Clear
12:49 AM 42.8 °F 35.1 °F 37.4 °F 81% 29.47 in 10.0 mi SE 16.1 mph 24.2 mph N/A   Clear
1:08 AM 42.8 °F 35.4 °F 37.4 °F 81% 29.46 in 10.0 mi SSE 15.0 mph 21.9 mph N/A   Clear
1:29 AM 42.8 °F 34.8 °F 37.4 °F 81% 29.45 in 10.0 mi SSE 17.3 mph 28.8 mph N/A   Clear
1:49 AM 42.8 °F 36.2 °F 37.4 °F 81% 29.45 in 10.0 mi SSE 12.7 mph 25.3 mph N/A   Clear
2:08 AM 42.8 °F 35.1 °F 37.4 °F 81% 29.45 in 10.0 mi SSE 16.1 mph 27.6 mph N/A   Clear
2:29 AM 42.8 °F 36.2 °F 37.4 °F 81% 29.45 in 10.0 mi SSE 12.7 mph 21.9 mph N/A   Clear
2:49 AM 42.8 °F 35.4 °F 37.4 °F 81% 29.44 in 10.0 mi SSE 15.0 mph 21.9 mph N/A   Clear
3:08 AM 42.8 °F 36.6 °F 37.4 °F 81% 29.44 in 10.0 mi SSE 11.5 mph 18.4 mph N/A   Clear
3:29 AM 42.8 °F 37.0 °F 37.4 °F 81% 29.44 in 10.0 mi SSE 10.4 mph 19.6 mph N/A   Clear
3:49 AM 42.8 °F 37.0 °F 37.4 °F 81% 29.43 in 10.0 mi SSE 10.4 mph 16.1 mph N/A   Clear
4:08 AM 42.8 °F 36.6 °F 37.4 °F 81% 29.42 in 10.0 mi SSE 11.5 mph 18.4 mph N/A   Clear
4:29 AM 42.8 °F 36.2 °F 37.4 °F 81% 29.42 in 10.0 mi SSE 12.7 mph 19.6 mph N/A   Clear
4:49 AM 42.8 °F 36.6 °F 37.4 °F 81% 29.42 in 10.0 mi SSE 11.5 mph 20.7 mph N/A   Clear
5:08 AM 42.8 °F 37.5 °F 37.4 °F 81% 29.41 in 10.0 mi SE 9.2 mph 17.3 mph N/A   Clear
5:29 AM 42.8 °F 37.5 °F 37.4 °F 81% 29.42 in 10.0 mi SE 9.2 mph 16.1 mph N/A   Clear
5:49 AM 42.8 °F 37.0 °F 37.4 °F 81% 29.42 in 10.0 mi SE 10.4 mph 17.3 mph N/A   Clear
6:08 AM 42.8 °F 36.6 °F 37.4 °F 81% 29.40 in 10.0 mi SE 11.5 mph - N/A   Clear
6:29 AM 42.8 °F 38.6 °F 37.4 °F 81% 29.41 in 10.0 mi SE 6.9 mph - N/A   Clear
7:08 AM 42.8 °F 37.5 °F 37.4 °F 81% 29.40 in 10.0 mi SE 9.2 mph 16.1 mph N/A   Clear
7:29 AM 44.6 °F 38.8 °F 39.2 °F 81% 29.40 in 10.0 mi SSE 11.5 mph 18.4 mph N/A   Clear
7:49 AM 42.8 °F 36.2 °F 37.4 °F 81% 29.40 in 10.0 mi SSE 12.7 mph 19.6 mph N/A   Clear
8:08 AM 42.8 °F 36.6 °F 39.2 °F 87% 29.40 in 10.0 mi SSE 11.5 mph 21.9 mph N/A   Clear
8:29 AM 42.8 °F 35.8 °F 39.2 °F 87% 29.39 in 7.0 mi SSE 13.8 mph 20.7 mph N/A   Clear
8:49 AM 44.6 °F 39.7 °F 39.2 °F 81% 29.39 in 7.0 mi South 9.2 mph 19.6 mph N/A   Clear
9:08 AM 44.6 °F 38.8 °F 41.0 °F 87% 29.40 in 7.0 mi South 11.5 mph 19.6 mph N/A   Clear
9:29 AM 44.6 °F 39.2 °F 41.0 °F 87% 29.40 in 7.0 mi SSE 10.4 mph 18.4 mph N/A   Clear
9:49 AM 44.6 °F 40.2 °F 41.0 °F 87% 29.40 in 7.0 mi South 8.1 mph 17.3 mph N/A   Clear
10:29 AM 46.4 °F 41.9 °F 42.8 °F 87% 29.41 in 7.0 mi South 9.2 mph - N/A   Scattered Clouds
10:49 AM 46.4 °F 43.5 °F 42.8 °F 87% 29.40 in 7.0 mi South 5.8 mph - N/A   Scattered Clouds
11:08 AM 46.4 °F 42.4 °F 42.8 °F 87% 29.41 in 7.0 mi SSW 8.1 mph - N/A   Mostly Cloudy
11:29 AM 44.6 °F 37.8 °F 39.2 °F 81% 29.42 in 10.0 mi SW 15.0 mph 20.7 mph N/A   Overcast
11:49 AM 41.0 °F 32.8 °F 35.6 °F 81% 29.44 in 10.0 mi SW 16.1 mph 23.0 mph N/A   Drizzle
12:08 PM 39.2 °F 30.8 °F 35.6 °F 87% 29.45 in 7.0 mi SW 15.0 mph 24.2 mph N/A Rain Light Rain
12:48 PM 37.4 °F 30.3 °F 35.6 °F 93% 29.45 in 5.0 mi SW 10.4 mph - 0.02 in   Drizzle
1:08 PM 37.4 °F 29.3 °F 35.6 °F 93% 29.47 in 7.0 mi WSW 12.7 mph - N/A   Overcast
1:29 PM 37.4 °F 29.3 °F 35.6 °F 93% 29.48 in 7.0 mi WSW 12.7 mph - N/A Rain Light Rain
1:48 PM 37.4 °F 29.8 °F 35.6 °F 93% 29.48 in 5.0 mi SW 11.5 mph - N/A   Overcast
2:08 PM 37.4 °F 29.8 °F 35.6 °F 93% 29.47 in 5.0 mi SW 11.5 mph 16.1 mph N/A   Overcast
2:29 PM 37.4 °F 28.2 °F 35.6 °F 93% 29.48 in 10.0 mi WSW 16.1 mph 20.7 mph N/A   Overcast
2:48 PM 37.4 °F 28.2 °F 35.6 °F 93% 29.49 in 10.0 mi SW 16.1 mph 21.9 mph N/A   Overcast
3:08 PM 35.6 °F 26.2 °F 35.6 °F 100% 29.51 in 10.0 mi WSW 15.0 mph 19.6 mph N/A   Overcast
3:29 PM 35.6 °F 26.2 °F 33.8 °F 93% 29.51 in 10.0 mi SW 15.0 mph 19.6 mph N/A   Overcast
3:48 PM 35.6 °F 25.9 °F 33.8 °F 93% 29.53 in 10.0 mi WSW 16.1 mph 24.2 mph N/A   Overcast
4:08 PM 35.6 °F 25.5 °F 33.8 °F 93% 29.54 in 10.0 mi WSW 17.3 mph 21.9 mph N/A   Overcast
4:29 PM 35.6 °F 24.5 °F 33.8 °F 93% 29.55 in 10.0 mi WSW 20.7 mph 24.2 mph N/A   Overcast
4:48 PM 33.8 °F 22.2 °F 30.2 °F 87% 29.56 in 10.0 mi WSW 20.7 mph 31.1 mph N/A   Overcast
5:08 PM 33.8 °F 22.5 °F 30.2 °F 87% 29.57 in 10.0 mi WSW 19.6 mph 26.5 mph N/A   Overcast
5:29 PM 33.8 °F 21.9 °F 28.4 °F 81% 29.57 in 10.0 mi WSW 21.9 mph 29.9 mph N/A   Overcast
5:48 PM 33.8 °F 21.9 °F 28.4 °F 81% 29.58 in 10.0 mi WSW 21.9 mph 28.8 mph N/A   Overcast
6:09 PM 32.0 °F 19.2 °F 28.4 °F 87% 29.60 in 10.0 mi WSW 23.0 mph 35.7 mph N/A   Overcast
6:29 PM 30.2 °F 15.4 °F 26.6 °F 86% 29.61 in 10.0 mi WSW 28.8 mph 39.1 mph N/A   Overcast
6:48 PM 30.2 °F 15.2 °F 24.8 °F 80% 29.62 in 10.0 mi WSW 29.9 mph 38.0 mph N/A   Overcast
7:09 PM 28.4 °F 13.5 °F 23.0 °F 80% 29.64 in 10.0 mi West 26.5 mph 34.5 mph N/A   Overcast
7:29 PM 28.4 °F 14.4 °F 21.2 °F 74% 29.66 in 10.0 mi WSW 23.0 mph 33.4 mph N/A   Overcast
7:48 PM 28.4 °F 14.7 °F 21.2 °F 74% 29.66 in 10.0 mi WSW 21.9 mph 33.4 mph N/A   Overcast
8:09 PM 26.6 °F 12.0 °F 21.2 °F 80% 29.68 in 10.0 mi WSW 23.0 mph 31.1 mph N/A   Overcast
8:29 PM 26.6 °F 12.0 °F 19.4 °F 74% 29.70 in 10.0 mi WSW 23.0 mph 34.5 mph N/A   Overcast
8:48 PM 24.8 °F 9.0 °F 17.6 °F 74% 29.71 in 10.0 mi West 25.3 mph 31.1 mph N/A   Overcast
9:09 PM 23.0 °F 6.6 °F 15.8 °F 74% 29.72 in 10.0 mi West 25.3 mph 33.4 mph N/A   Mostly Cloudy
9:29 PM 21.2 °F 4.9 °F 15.8 °F 80% 29.73 in 10.0 mi WSW 23.0 mph 29.9 mph N/A   Mostly Cloudy
9:48 PM 21.2 °F 4.9 °F 15.8 °F 80% 29.73 in 10.0 mi WSW 23.0 mph 31.1 mph N/A   Mostly Cloudy
10:09 PM 21.2 °F 5.2 °F 14.0 °F 74% 29.75 in 10.0 mi West 21.9 mph 33.4 mph N/A   Overcast
10:28 PM 19.4 °F 3.6 °F 14.0 °F 80% 29.76 in 10.0 mi WSW 19.6 mph 29.9 mph N/A   Overcast
10:49 PM 19.4 °F 3.2 °F 14.0 °F 80% 29.77 in 10.0 mi West 20.7 mph 28.8 mph N/A Snow Light Snow
11:09 PM 19.4 °F 3.6 °F 12.2 °F 74% 29.78 in 10.0 mi West 19.6 mph 31.1 mph N/A   Overcast
11:28 PM 17.6 °F 0.5 °F 12.2 °F 79% 29.79 in 10.0 mi West 21.9 mph 29.9 mph N/A   Overcast
11:49 PM 17.6 °F -0.3 °F 10.4 °F 73% 29.80 in 10.0 mi West 24.2 mph 33.4 mph N/A   Mostly Cloudy